SR6WXP Weather Reports


Display with metric or nautical units.
time (UTC)temp
F
wind
direction
speed
MPH
gust
MPH
rain 1hr
in
rain 24hr
in
rain mn
in
humidity
%
barometer
mb
20260503035849 49 130 1.0 2.0 0.00 0.00 0.00 69 994.4
20260503035450 49 105 3.0 4.0 0.00 0.00 0.00 69 994.5
20260503035050 49 107 4.0 6.0 0.00 0.00 0.00 69 994.5
20260503034650 49 105 4.0 5.0 0.00 0.00 0.00 69 994.5
20260503034247 49 105 3.0 5.0 0.00 0.00 0.00 69 994.6
20260503033848 49 110 3.0 5.0 0.00 0.00 0.00 68 994.6
20260503033448 49 114 3.0 4.0 0.00 0.00 0.00 68 994.5
20260503033048 49 115 3.0 4.0 0.00 0.00 0.00 68 994.6
20260503032648 50 114 3.0 4.0 0.00 0.00 0.00 68 994.6
20260503032246 50 112 3.0 4.0 0.00 0.00 0.00 67 994.6
20260503031846 50 113 2.0 3.0 0.00 0.00 0.00 67 994.6
20260503031446 50 110 2.0 3.0 0.00 0.00 0.00 67 994.7
20260503031046 50 114 2.0 3.0 0.00 0.00 0.00 67 994.7
20260503030646 50 103 1.0 1.0 0.00 0.00 0.00 67 994.7
20260503030244 50 109 1.0 2.0 0.00 0.00 0.00 66 994.7
20260503025844 50 112 1.0 2.0 0.00 0.00 0.00 66 994.6
20260503025444 50 110 2.0 3.0 0.00 0.00 0.00 66 994.7
20260503025034 50 106 2.0 3.0 0.00 0.00 0.00 66 994.7
20260503024633 51 116 0.0 0.0 0.00 0.00 0.00 66 994.7
20260503024230 51 117 1.0 2.0 0.00 0.00 0.00 65 994.7
20260503023829 51 114 2.0 4.0 0.00 0.00 0.00 65 994.7
20260503023029 51 105 2.0 3.0 0.00 0.00 0.00 65 994.7
20260503022629 51 108 1.0 2.0 0.00 0.00 0.00 65 994.8
20260503022227 51 110 0.0 1.0 0.00 0.00 0.00 64 994.9
20260503021827 51 108 1.0 1.0 0.00 0.00 0.00 64 994.8
20260503021427 51 108 0.0 0.0 0.00 0.00 0.00 64 994.9
20260503021059 52 108 0.0 0.0 0.00 0.00 0.00 63 994.9
20260503021027 52 108 0.0 0.0 0.00 0.00 0.00 63 994.9
20260503020626 52 108 0.0 0.0 0.00 0.00 0.00 63 994.9
20260503020224 52 109 0.0 0.0 0.00 0.00 0.00 63 994.9
20260503015824 52 108 1.0 1.0 0.00 0.00 0.00 62 994.9
20260503015424 52 109 1.0 2.0 0.00 0.00 0.00 62 994.9
20260503014624 53 108 0.0 0.0 0.00 0.00 0.00 62 994.9
20260503014222 53 109 0.0 0.0 0.00 0.00 0.00 61 995.0
20260503013819 53 109 0.0 0.0 0.00 0.00 0.00 61 995.0
20260503013419 53 108 1.0 1.0 0.00 0.00 0.00 60 995.1
20260503013019 53 106 2.0 3.0 0.00 0.00 0.00 60 995.1
20260503012619 53 103 3.0 4.0 0.00 0.00 0.00 60 995.1
20260503012217 53 106 2.0 3.0 0.00 0.00 0.00 60 995.1
20260503011817 54 104 2.0 2.0 0.00 0.00 0.00 59 995.1
20260503011016 54 121 0.0 1.0 0.00 0.00 0.00 59 995.1
20260503010616 54 120 0.0 1.0 0.00 0.00 0.00 59 995.2
20260503010214 54 120 0.0 1.0 0.00 0.00 0.00 58 995.2
20260503005814 54 124 1.0 2.0 0.00 0.00 0.00 58 995.2
20260503005414 55 128 0.0 1.0 0.00 0.00 0.00 58 995.2
20260503005014 55 127 1.0 2.0 0.00 0.00 0.00 57 995.2
20260503004614 55 132 1.0 1.0 0.00 0.00 0.00 57 995.2
20260503004212 55 132 1.0 3.0 0.00 0.00 0.00 57 995.3
20260503003812 55 132 0.0 1.0 0.00 0.00 0.00 56 995.3
20260503003412 56 137 1.0 3.0 0.00 0.00 0.00 56 808.8
20260503002758 56 162 2.0 4.0 0.00 0.00 0.00 56 995.4
20260503002359 56 154 1.0 2.0 0.00 0.00 0.00 55 995.4
20260503001959 56 153 2.0 5.0 0.00 0.00 0.00 55 995.4
20260503001559 56 152 2.0 3.0 0.00 0.00 0.00 55 995.4
20260503001157 56 162 2.0 4.0 0.00 0.00 0.00 55 995.4
20260503000757 56 150 2.0 4.0 0.00 0.00 0.00 55 995.4
20260503000357 57 152 2.0 5.0 0.00 0.00 0.00 54 995.5
20260502235947 57 138 2.0 4.0 0.00 0.00 0.00 54 995.5
20260502235546 57 151 3.0 6.0 0.00 0.00 0.00 54 995.5
20260502235143 57 156 4.0 6.0 0.00 0.00 0.00 54 995.6
20260502234742 57 163 3.0 5.0 0.00 0.00 0.00 54 995.6
20260502234342 57 165 4.0 6.0 0.00 0.00 0.00 54 995.6
20260502233943 57 160 3.0 7.0 0.00 0.00 0.00 53 995.7
20260502233542 57 160 3.0 6.0 0.00 0.00 0.00 53 995.7
20260502233140 58 157 2.0 5.0 0.00 0.00 0.00 53 995.7
20260502232340 58 137 3.0 6.0 0.00 0.00 0.00 52 995.7
20260502231940 58 154 3.0 6.0 0.00 0.00 0.00 52 995.7
20260502231539 58 159 4.0 7.0 0.00 0.00 0.00 52 995.7
20260502231137 58 167 5.0 8.0 0.00 0.00 0.00 52 995.8
20260502230737 58 162 4.0 6.0 0.00 0.00 0.00 52 995.9
20260502230337 58 157 4.0 5.0 0.00 0.00 0.00 52 995.9
20260502225938 58 162 4.0 8.0 0.00 0.00 0.00 51 995.9
20260502225538 59 163 3.0 6.0 0.00 0.00 0.00 51 995.9
20260502224733 59 155 4.0 7.0 0.00 0.00 0.00 51 995.8
20260502224332 59 138 4.0 6.0 0.00 0.00 0.00 51 995.8
20260502223932 59 150 4.0 7.0 0.00 0.00 0.00 51 995.9
20260502223533 59 140 2.0 5.0 0.00 0.00 0.00 51 995.9
20260502223131 59 135 3.0 9.0 0.00 0.00 0.00 51 995.9
20260502222731 59 138 3.0 4.0 0.00 0.00 0.00 51 996.0
20260502222331 59 150 3.0 6.0 0.00 0.00 0.00 50 995.9
20260502221930 59 142 3.0 5.0 0.00 0.00 0.00 50 996.0
20260502221530 59 122 4.0 8.0 0.00 0.00 0.00 50 996.0
20260502221128 60 143 3.0 7.0 0.00 0.00 0.00 50 996.0
20260502220728 60 131 2.0 7.0 0.00 0.00 0.00 50 996.0
20260502220328 60 128 3.0 6.0 0.00 0.00 0.00 50 996.0
20260502215928 60 134 3.0 6.0 0.00 0.00 0.00 50 996.1
20260502215528 60 149 2.0 5.0 0.00 0.00 0.00 50 996.0
20260502215126 60 125 3.0 6.0 0.00 0.00 0.00 50 996.1
20260502214726 60 130 4.0 6.0 0.00 0.00 0.00 49 996.1
20260502214326 60 135 4.0 7.0 0.00 0.00 0.00 49 809.2
20260502214116 60 144 4.0 8.0 0.00 0.00 0.00 49 996.2
20260502213713 60 147 3.0 6.0 0.00 0.00 0.00 49 996.2
20260502213312 60 138 4.0 10.0 0.00 0.00 0.00 49 996.2
20260502212911 60 130 4.0 6.0 0.00 0.00 0.00 49 996.3
20260502212512 61 135 3.0 6.0 0.00 0.00 0.00 49 996.3
20260502212110 61 129 3.0 6.0 0.00 0.00 0.00 49 996.3
20260502211710 61 125 3.0 7.0 0.00 0.00 0.00 49 996.3
20260502211310 61 152 3.0 6.0 0.00 0.00 0.00 49 996.3
20260502210910 61 136 4.0 7.0 0.00 0.00 0.00 49 996.3
20260502210510 61 140 4.0 6.0 0.00 0.00 0.00 49 996.3
20260502210106 61 128 5.0 7.0 0.00 0.00 0.00 49 996.3
20260502205706 61 122 5.0 8.0 0.00 0.00 0.00 49 996.3
20260502205306 61 135 3.0 7.0 0.00 0.00 0.00 49 996.4
20260502204907 61 135 3.0 6.0 0.00 0.00 0.00 49 996.3
20260502204507 61 130 5.0 10.0 0.00 0.00 0.00 49 996.4
20260502204104 61 138 5.0 12.0 0.00 0.00 0.00 49 996.3
20260502203705 60 124 4.0 9.0 0.00 0.00 0.00 49 996.4
20260502203305 61 111 4.0 7.0 0.00 0.00 0.00 50 996.4
20260502202902 61 118 5.0 9.0 0.00 0.00 0.00 50 996.4
20260502202502 61 108 1.0 3.0 0.00 0.00 0.00 50 996.5
20260502202100 62 121 1.0 2.0 0.00 0.00 0.00 49 996.5
20260502201700 62 113 3.0 4.0 0.00 0.00 0.00 49 996.5
20260502201301 62 97 5.0 7.0 0.00 0.00 0.00 48 996.6
20260502200901 62 104 4.0 6.0 0.00 0.00 0.00 47 996.5
20260502200501 63 173 2.0 2.0 0.00 0.00 0.00 47 996.3
20260502200058 63 159 1.0 2.0 0.00 0.00 0.00 46 996.4
20260502195659 63 176 2.0 4.0 0.00 0.00 0.00 46 996.4
20260502195256 63 178 3.0 4.0 0.00 0.00 0.00 46 996.4
20260502194856 63 175 2.0 3.0 0.00 0.00 0.00 46 996.4
20260502194456 63 169 2.0 4.0 0.00 0.00 0.00 46 996.3
20260502194054 64 172 2.0 3.0 0.00 0.00 0.00 45 996.4
20260502193654 64 175 3.0 4.0 0.00 0.00 0.00 45 996.4
20260502193254 64 185 2.0 3.0 0.00 0.00 0.00 45 996.4
20260502192854 64 174 2.0 3.0 0.00 0.00 0.00 45 996.4
20260502192454 65 171 2.0 4.0 0.00 0.00 0.00 44 996.5
20260502192052 65 183 2.0 3.0 0.00 0.00 0.00 44 996.5
20260502191649 65 182 2.0 4.0 0.00 0.00 0.00 44 996.4
20260502191249 65 180 2.0 3.0 0.00 0.00 0.00 43 996.4
20260502190441 66 182 2.0 3.0 0.00 0.00 0.00 43 996.4
20260502190038 66 178 2.0 3.0 0.00 0.00 0.00 42 996.4
20260502185237 67 163 2.0 2.0 0.00 0.00 0.00 42 996.3
20260502184837 68 165 2.0 4.0 0.00 0.00 0.00 41 996.3
20260502184437 68 164 2.0 3.0 0.00 0.00 0.00 41 996.3
20260502184035 69 169 2.0 3.0 0.00 0.00 0.00 40 996.3
20260502183635 69 171 2.0 4.0 0.00 0.00 0.00 40 996.4
20260502183235 70 170 2.0 3.0 0.00 0.00 0.00 39 996.3
20260502182835 71 167 1.0 2.0 0.00 0.00 0.00 38 996.2
20260502182435 71 164 1.0 2.0 0.00 0.00 0.00 37 996.2
20260502182033 72 156 1.0 2.0 0.00 0.00 0.00 37 996.2
20260502181633 73 149 1.0 2.0 0.00 0.00 0.00 36 996.2
20260502181233 74 138 1.0 2.0 0.00 0.00 0.00 35 996.2
20260502180831 75 159 2.0 3.0 0.00 0.00 0.00 34 996.2
20260502180431 76 172 2.0 3.0 0.00 0.00 0.00 33 996.2
20260502170423 85 111 1.0 2.0 0.00 0.00 0.00 26 996.4
20260502164010 85 77 2.0 4.0 0.00 0.00 0.00 26 996.7
20260502163609 85 118 1.0 2.0 0.00 0.00 0.00 26 996.7
20260502163208 85 91 0.0 0.0 0.00 0.00 0.00 26 996.7
20260502162807 85 91 2.0 2.0 0.00 0.00 0.00 26 996.8
20260502162407 85 117 2.0 4.0 0.00 0.00 0.00 27 996.8
20260502162005 85 90 3.0 5.0 0.00 0.00 0.00 27 996.9
20260502161605 85 86 2.0 3.0 0.00 0.00 0.00 27 997.0
20260502161205 85 82 3.0 4.0 0.00 0.00 0.00 27 997.0
20260502160805 85 72 2.0 4.0 0.00 0.00 0.00 27 997.0
20260502160405 85 81 3.0 5.0 0.00 0.00 0.00 27 997.0
20260502151956 82 83 5.0 8.0 0.00 0.00 0.00 29 997.6
20260502151556 82 64 4.0 5.0 0.00 0.00 0.00 29 997.6
20260502151157 82 72 2.0 5.0 0.00 0.00 0.00 29 997.7
20260502150756 82 43 4.0 5.0 0.00 0.00 0.00 30 997.7
20260502150356 81 75 4.0 6.0 0.00 0.00 0.00 31 997.8
20260502130729 68 113 3.0 6.0 0.00 0.00 0.00 39 999.0
20260502130329 68 105 4.0 8.0 0.00 0.00 0.00 40 999.0
20260502123524 68 99 4.0 6.0 0.00 0.00 0.00 41 999.4
20260502123124 67 110 7.0 10.0 0.00 0.00 0.00 41 999.4
20260502122724 67 113 2.0 5.0 0.00 0.00 0.00 41 999.4
20260502122324 67 15 3.0 6.0 0.00 0.00 0.00 41 999.5
20260502121922 67 80 4.0 8.0 0.00 0.00 0.00 41 999.6
20260502121519 67 276 1.0 5.0 0.00 0.00 0.00 41 999.6
20260502121119 67 276 2.0 3.0 0.00 0.00 0.00 40 999.7
20260502120720 67 53 3.0 5.0 0.00 0.00 0.00 41 999.7
20260502120320 66 113 4.0 7.0 0.00 0.00 0.00 41 999.8
20260502115918 66 108 6.0 9.0 0.00 0.00 0.00 42 999.8
20260502115518 66 112 2.0 9.0 0.00 0.00 0.00 41 999.9
20260502115118 66 103 3.0 5.0 0.00 0.00 0.00 42 1000.0
20260502114718 66 167 3.0 6.0 0.00 0.00 0.00 42 1000.0
20260502114318 66 24 3.0 6.0 0.00 0.00 0.00 42 1000.1
20260502113908 66 65 6.0 8.0 0.00 0.00 0.00 42 1000.1
20260502113508 66 72 2.0 6.0 0.00 0.00 0.00 42 1000.2
20260502113107 66 82 4.0 6.0 0.00 0.00 0.00 42 1000.2
20260502112706 65 106 4.0 8.0 0.00 0.00 0.00 42 1000.3
20260502112306 65 66 2.0 4.0 0.00 0.00 0.00 41 1000.3
20260502111904 65 105 2.0 5.0 0.00 0.00 0.00 41 1000.3
20260502111504 65 70 3.0 7.0 0.00 0.00 0.00 41 1000.3
20260502111104 65 210 2.0 3.0 0.00 0.00 0.00 41 1000.4
20260502110702 65 151 4.0 7.0 0.00 0.00 0.00 42 1000.4
20260502110302 65 74 3.0 6.0 0.00 0.00 0.00 43 1000.5
20260502105900 65 74 4.0 8.0 0.00 0.00 0.00 43 1000.6
20260502105500 65 75 3.0 5.0 0.00 0.00 0.00 43 1000.7
20260502105100 65 90 3.0 5.0 0.00 0.00 0.00 43 1000.7
20260502104700 65 105 3.0 6.0 0.00 0.00 0.00 43 1000.8
20260502104300 65 108 6.0 8.0 0.00 0.00 0.00 43 1000.8
20260502103858 65 56 5.0 8.0 0.00 0.00 0.00 42 1000.8
20260502103458 65 24 3.0 5.0 0.00 0.00 0.00 42 1000.8
20260502103058 65 66 7.0 12.0 0.00 0.00 0.00 42 1000.9
20260502102658 65 42 6.0 8.0 0.00 0.00 0.00 43 1001.0
20260502102258 65 38 7.0 11.0 0.00 0.00 0.00 43 1001.0
20260502101856 64 29 5.0 7.0 0.00 0.00 0.00 45 1001.0
20260502101456 64 102 4.0 6.0 0.00 0.00 0.00 45 1001.1
20260502101057 64 135 3.0 6.0 0.00 0.00 0.00 45 1001.1
20260502100656 64 107 4.0 8.0 0.00 0.00 0.00 46 1001.2
20260502100256 64 90 8.0 12.0 0.00 0.00 0.00 46 1001.2
20260502091449 63 113 4.0 7.0 0.00 0.00 0.00 47 1001.6
20260502091049 63 74 4.0 7.0 0.00 0.00 0.00 47 1001.6
20260502090641 63 104 2.0 5.0 0.00 0.00 0.00 47 1001.6
20260502090240 63 93 4.0 7.0 0.00 0.00 0.00 47 1001.6
20260502071420 57 19 2.0 2.0 0.00 0.00 0.00 63 1002.0
20260502071019 57 333 0.0 1.0 0.00 0.00 0.00 63 1002.0
20260502070619 57 330 0.0 0.0 0.00 0.00 0.00 64 1002.0
20260502070219 56 330 0.0 1.0 0.00 0.00 0.00 65 1001.9
20260502065817 56 20 1.0 2.0 0.00 0.00 0.00 66 1001.9
20260502065417 56 72 0.0 1.0 0.00 0.00 0.00 67 1001.9
20260502065017 55 61 1.0 2.0 0.00 0.00 0.00 67 1001.9
20260502064617 55 16 0.0 1.0 0.00 0.00 0.00 67 1002.0
20260502064217 55 16 0.0 1.0 0.00 0.00 0.00 68 1002.0
20260502063807 54 22 1.0 1.0 0.00 0.00 0.00 68 1002.0
20260502063406 54 29 0.0 0.0 0.00 0.00 0.00 69 1001.9
20260502063005 54 24 0.0 0.0 0.00 0.00 0.00 70 1002.0
20260502062601 54 41 1.0 2.0 0.00 0.00 0.00 70 1001.9
20260502062201 53 33 1.0 2.0 0.00 0.00 0.00 71 1001.9
20260502061759 53 215 1.0 1.0 0.00 0.00 0.00 71 1001.9
20260502061359 53 214 1.0 1.0 0.00 0.00 0.00 71 1002.0
20260502060959 52 214 1.0 1.0 0.00 0.00 0.00 72 1002.0
20260502060559 52 214 1.0 1.0 0.00 0.00 0.00 73 1001.9
20260502060159 52 214 1.0 1.0 0.00 0.00 0.00 73 1001.9
20260502055757 51 214 1.0 1.0 0.00 0.00 0.00 73 1001.9
20260502055357 51 214 1.0 1.0 0.00 0.00 0.00 74 1001.8
20260502054957 51 214 1.0 1.0 0.00 0.00 0.00 75 1001.8
20260502054557 51 214 1.0 1.0 0.00 0.00 0.00 75 1001.8
20260502054156 50 214 1.0 1.0 0.00 0.00 0.00 76 1001.8
20260502053754 50 214 1.0 1.0 0.00 0.00 0.00 77 1001.9
20260502053355 50 214 1.0 1.0 0.00 0.00 0.00 78 1001.9
20260502052955 49 214 1.0 1.0 0.00 0.00 0.00 78 1001.9
20260502052555 49 214 1.0 1.0 0.00 0.00 0.00 78 1002.0
20260502052154 49 214 1.0 1.0 0.00 0.00 0.00 79 1002.0
20260502051350 49 214 1.0 1.0 0.00 0.00 0.00 78 1001.9
20260502050949 48 214 1.0 1.0 0.00 0.00 0.00 78 1001.9
20260502050550 48 215 1.0 1.0 0.00 0.00 0.00 78 1001.9
20260502050150 48 214 1.0 1.0 0.00 0.00 0.00 77 1001.8
20260502045748 48 214 1.0 1.0 0.00 0.00 0.00 77 1001.8
20260502045348 48 214 1.0 1.0 0.00 0.00 0.00 77 1001.8
20260502044947 47 214 1.0 1.0 0.00 0.00 0.00 77 1001.8
20260502044547 47 214 1.0 1.0 0.00 0.00 0.00 77 1001.8
20260502044147 47 214 1.0 1.0 0.00 0.00 0.00 78 1001.8
20260502043745 47 214 1.0 1.0 0.00 0.00 0.00 78 1001.8
20260502043345 47 214 1.0 1.0 0.00 0.00 0.00 78 1001.8
20260502042944 47 214 1.0 1.0 0.00 0.00 0.00 78 1001.7
20260502042544 47 214 1.0 1.0 0.00 0.00 0.00 78 1001.7
20260502042145 47 214 1.0 1.0 0.00 0.00 0.00 78 1001.7
20260502041743 47 222 1.0 1.0 0.00 0.00 0.00 78 1001.7
20260502041343 47 226 1.0 1.0 0.00 0.00 0.00 79 1001.7
20260502040943 47 228 1.0 1.0 0.00 0.00 0.00 79 1001.7
20260502040533 47 225 1.0 1.0 0.00 0.00 0.00 79 1001.7
20260502040132 46 227 1.0 1.0 0.00 0.00 0.00 79 1001.6